EW4725 Weather Reports


Display with metric or nautical units.
time (UTC)temp
F
wind
direction
speed
MPH
gust
MPH
rain 1hr
in
rain 24hr
in
rain mn
in
humidity
%
barometer
mb
20260509204917 74 148 4.0 5.0 0.00 0.00 0.00 66 1012.6
20260509204417 73 125 2.0 3.0 0.00 0.00 0.00 67 1012.6
20260509203917 73 148 7.0 8.0 0.00 0.00 0.00 66 1012.6
20260509203417 74 148 5.0 7.0 0.00 0.00 0.00 65 1012.7
20260509202917 74 260 3.0 6.0 0.00 0.00 0.00 66 1012.7
20260509202437 73 170 3.0 5.0 0.00 0.00 0.00 68 1012.7
20260509201917 73 238 2.0 5.0 0.00 0.00 0.00 67 1012.8
20260509201417 72 215 3.0 6.0 0.00 0.00 0.00 67 1012.8
20260509200918 73 148 7.0 9.0 0.00 0.00 0.00 68 1012.8
20260509200417 73 125 6.0 9.0 0.00 0.00 0.00 68 1012.8
20260509195917 72 148 6.0 9.0 0.00 0.00 0.00 68 1012.9
20260509195415 73 148 6.0 8.0 0.00 0.00 0.00 67 1012.9
20260509194917 73 148 6.0 10.0 0.00 0.00 0.00 66 1012.9
20260509194417 74 148 2.0 11.0 0.00 0.00 0.00 66 1013.0
20260509193917 74 125 4.0 6.0 0.00 0.00 0.00 66 1013.1
20260509193437 74 170 4.0 7.0 0.00 0.00 0.00 66 1013.1
20260509192917 74 148 5.0 8.0 0.00 0.00 0.00 65 1013.1
20260509192417 74 170 4.0 6.0 0.00 0.00 0.00 66 1013.1
20260509191917 74 193 2.0 4.0 0.00 0.00 0.00 66 1013.2
20260509191417 73 148 3.0 6.0 0.00 0.00 0.00 67 1013.3
20260509190917 72 125 2.0 4.0 0.00 0.00 0.00 68 1013.4
20260509190417 72 148 3.0 4.0 0.00 0.00 0.00 69 1013.4
20260509185917 72 238 3.0 5.0 0.00 0.00 0.00 69 1013.4
20260509185417 72 283 3.0 5.0 0.00 0.00 0.00 68 1013.5
20260509184917 72 238 3.0 7.0 0.00 0.00 0.00 70 1013.5
20260509184417 72 260 4.0 6.0 0.00 0.00 0.00 70 1013.5
20260509183917 72 148 4.0 6.0 0.00 0.00 0.00 70 1013.6
20260509183537 72 260 5.0 5.0 0.00 0.00 0.00 69 1013.6
20260509182937 72 170 3.0 4.0 0.00 0.00 0.00 71 1013.6
20260509182417 71 215 2.0 5.0 0.00 0.00 0.00 71 1013.6
20260509181917 71 238 2.0 5.0 0.00 0.00 0.00 72 1013.6
20260509181417 70 328 1.0 2.0 0.00 0.00 0.00 72 1013.6
20260509180917 70 305 2.0 3.0 0.00 0.00 0.00 72 1013.6
20260509180417 70 170 2.0 3.0 0.00 0.00 0.00 73 1013.6
20260509175917 70 283 3.0 4.0 0.00 0.00 0.00 72 1013.8
20260509175417 70 215 1.0 3.0 0.00 0.00 0.00 73 1013.8
20260509174937 69 283 3.0 4.0 0.00 0.00 0.00 74 1013.9
20260509174417 68 148 1.0 2.0 0.00 0.00 0.00 75 1013.9
20260509173937 68 215 3.0 4.0 0.00 0.00 0.00 75 1013.9
20260509173417 67 58 2.0 3.0 0.00 0.00 0.00 78 1013.9
20260509172917 67 103 1.0 2.0 0.00 0.00 0.00 78 1013.8
20260509172437 67 125 4.0 6.0 0.00 0.00 0.00 78 1013.8
20260509171917 66 0.0 3.0 0.00 0.00 0.00 81 1013.8
20260509171417 66 125 1.0 2.0 0.00 0.00 0.00 80 1013.8
20260509170937 65 13 2.0 5.0 0.00 0.00 0.00 81 1013.7
20260509170417 65 58 2.0 3.0 0.00 0.00 0.00 82 1013.6
20260509165917 65 125 3.0 4.0 0.00 0.00 0.00 81 1013.6
20260509165416 65 238 1.0 4.0 0.00 0.00 0.00 82 1013.6
20260509164917 65 148 1.0 2.0 0.00 0.00 0.00 83 1013.7
20260509164417 64 0.0 1.0 0.00 0.00 0.00 83 1013.7
20260509163937 64 0.0 1.0 0.00 0.00 0.00 84 1013.7
20260509163457 64 170 1.0 3.0 0.00 0.00 0.00 84 1013.7
20260509162937 64 80 2.0 3.0 0.00 0.00 0.00 85 1013.7
20260509162417 63 170 1.0 2.0 0.00 0.00 0.00 85 1013.7
20260509161917 63 148 1.0 2.0 0.00 0.00 0.00 85 1013.7
20260509161417 63 125 3.0 4.0 0.00 0.00 0.00 85 1013.7
20260509160917 63 0.0 1.0 0.00 0.00 0.00 85 1013.7
20260509160417 63 0.0 0.0 0.00 0.00 0.00 86 1013.8
20260509155916 63 0.0 1.0 0.00 0.00 0.00 86 1013.8
20260509155417 63 35 1.0 2.0 0.00 0.00 0.00 86 1013.8
20260509154937 63 80 1.0 2.0 0.00 0.00 0.00 86 1013.8
20260509154417 63 0.0 1.0 0.00 0.00 0.00 87 1013.9
20260509153916 62 193 1.0 2.0 0.00 0.00 0.00 86 1013.8
20260509153416 62 148 3.0 5.0 0.00 0.00 0.00 86 1013.8
20260509152917 62 125 1.0 3.0 0.00 0.00 0.00 87 1013.8
20260509152417 62 0.0 1.0 0.00 0.00 0.00 87 1013.8
20260509151916 62 125 1.0 1.0 0.00 0.00 0.00 87 1013.8
20260509151436 62 125 1.0 2.0 0.00 0.00 0.00 88 1013.8
20260509150937 62 125 3.0 4.0 0.00 0.00 0.00 88 1013.8
20260509150416 62 125 2.0 3.0 0.00 0.00 0.00 88 1013.8
20260509145917 62 103 1.0 2.0 0.00 0.00 0.00 88 1013.8
20260509145457 61 0.0 0.0 0.00 0.00 0.00 88 1013.8
20260509144917 61 148 2.0 3.0 0.00 0.00 0.00 88 1013.9
20260509144416 61 103 2.0 4.0 0.00 0.00 0.00 88 1013.9
20260509143916 61 103 1.0 2.0 0.00 0.00 0.00 88 1013.8
20260509143436 61 125 2.0 3.0 0.00 0.00 0.00 88 1013.8
20260509142917 61 148 1.0 2.0 0.00 0.00 0.00 89 1013.8
20260509142416 61 0.0 1.0 0.00 0.00 0.00 89 1013.8
20260509141916 61 0.0 2.0 0.00 0.00 0.00 89 1013.8
20260509141416 61 125 2.0 2.0 0.00 0.00 0.00 89 1013.8
20260509140916 61 125 2.0 3.0 0.00 0.00 0.00 89 1013.6
20260509140416 61 0.0 1.0 0.00 0.00 0.00 89 1013.6
20260509135916 61 0.0 0.0 0.00 0.00 0.00 89 1013.6
20260509135417 61 0.0 0.0 0.00 0.00 0.00 89 1013.6
20260509134917 61 148 1.0 1.0 0.00 0.00 0.00 89 1013.7
20260509134416 61 193 2.0 2.0 0.00 0.00 0.00 89 1013.5
20260509133916 61 58 2.0 3.0 0.00 0.00 0.00 90 1013.5
20260509133417 61 0.0 0.0 0.00 0.00 0.00 89 1013.6
20260509132917 61 80 1.0 2.0 0.00 0.00 0.00 89 1013.5
20260509132417 61 125 1.0 1.0 0.00 0.00 0.00 89 1013.5
20260509131916 61 0.0 0.0 0.00 0.00 0.00 89 1013.3
20260509131416 61 125 1.0 2.0 0.00 0.00 0.00 90 1013.3
20260509130916 61 0.0 0.0 0.00 0.00 0.00 90 1013.2
20260509130416 60 125 1.0 3.0 0.00 0.00 0.00 90 1013.2
20260509125916 60 58 1.0 2.0 0.00 0.00 0.00 90 1013.2
20260509125416 60 103 1.0 1.0 0.00 0.00 0.00 90 1013.2
20260509124916 60 103 1.0 2.0 0.00 0.00 0.00 90 1013.2
20260509124416 60 125 2.0 3.0 0.00 0.00 0.00 90 1013.2
20260509123916 60 0.0 1.0 0.00 0.00 0.00 90 1013.1
20260509123416 60 125 1.0 2.0 0.00 0.00 0.00 90 1013.2
20260509122916 60 125 1.0 2.0 0.00 0.00 0.00 90 1013.1
20260509122416 60 0.0 0.0 0.00 0.00 0.00 90 1013.2
20260509121916 60 125 2.0 2.0 0.00 0.00 0.00 90 1013.1
20260509121416 60 148 1.0 2.0 0.00 0.00 0.00 90 1013.2
20260509120916 60 148 3.0 4.0 0.00 0.00 0.00 90 1013.2
20260509120416 60 148 2.0 2.0 0.00 0.00 0.00 90 1013.3
20260509115916 60 0.0 1.0 0.00 0.00 0.00 90 1013.3
20260509115416 60 0.0 0.0 0.00 0.00 0.00 90 1013.3
20260509114916 60 0.0 0.0 0.00 0.00 0.00 90 1013.3
20260509114416 60 125 1.0 2.0 0.00 0.00 0.00 90 1013.3
20260509113916 60 125 2.0 4.0 0.00 0.00 0.00 90 1013.3
20260509113416 60 0.0 0.0 0.00 0.00 0.00 90 1013.3
20260509112936 60 125 3.0 4.0 0.00 0.00 0.00 90 1013.2
20260509112416 60 148 2.0 3.0 0.00 0.00 0.00 90 1013.2
20260509111916 60 125 1.0 2.0 0.00 0.00 0.00 90 1013.2
20260509111436 60 0.0 1.0 0.00 0.00 0.00 90 1013.2
20260509110916 60 103 1.0 2.0 0.00 0.00 0.00 90 1013.2
20260509110416 60 0.0 0.0 0.00 0.00 0.00 90 1013.2
20260509105916 60 148 1.0 1.0 0.00 0.00 0.00 90 1013.2
20260509105436 60 0.0 1.0 0.00 0.00 0.00 91 1013.2
20260509104916 60 148 2.0 3.0 0.00 0.00 0.00 91 1013.3
20260509104416 60 0.0 0.0 0.00 0.00 0.00 91 1013.3
20260509103916 60 148 1.0 2.0 0.00 0.00 0.00 90 1013.4
20260509103416 60 148 2.0 3.0 0.00 0.00 0.00 90 1013.4
20260509102916 60 148 1.0 2.0 0.00 0.00 0.00 90 1013.3
20260509102416 60 125 1.0 2.0 0.00 0.00 0.00 90 1013.3
20260509101916 60 125 2.0 4.0 0.00 0.00 0.00 91 1013.4
20260509101416 60 170 1.0 2.0 0.00 0.00 0.00 91 1013.5
20260509100936 60 0.0 1.0 0.00 0.00 0.00 91 1013.5
20260509100416 60 148 2.0 3.0 0.00 0.00 0.00 90 1013.4
20260509095916 60 125 1.0 2.0 0.00 0.00 0.00 91 1013.5
20260509095436 60 215 2.0 3.0 0.00 0.00 0.00 90 1013.5
20260509094916 60 125 2.0 2.0 0.00 0.00 0.00 90 1013.6
20260509094416 60 125 2.0 3.0 0.00 0.00 0.00 90 1013.6
20260509093916 60 148 2.0 4.0 0.00 0.00 0.00 90 1013.6
20260509093416 60 0.0 1.0 0.00 0.00 0.00 90 1013.7
20260509092916 60 0.0 1.0 0.00 0.00 0.00 90 1013.7
20260509092416 60 148 2.0 3.0 0.00 0.00 0.00 90 1013.7
20260509091916 60 0.0 1.0 0.00 0.00 0.00 90 1013.7
20260509091416 60 148 1.0 2.0 0.00 0.00 0.00 90 1013.7
20260509090916 61 125 4.0 5.0 0.00 0.00 0.00 90 1013.7
20260509090416 61 125 2.0 3.0 0.00 0.00 0.00 90 1013.7
20260509085916 61 125 4.0 5.0 0.00 0.00 0.00 90 1013.7
20260509085416 61 148 3.0 4.0 0.00 0.00 0.00 89 1013.7
20260509084936 61 148 2.0 3.0 0.00 0.00 0.00 89 1013.7
20260509084416 61 148 1.0 2.0 0.00 0.00 0.00 89 1013.8
20260509083916 61 148 4.0 6.0 0.00 0.00 0.00 89 1013.8
20260509083416 61 148 5.0 7.0 0.00 0.00 0.00 89 1013.8
20260509082916 61 170 1.0 2.0 0.00 0.00 0.00 88 1013.9
20260509082416 62 148 3.0 5.0 0.00 0.00 0.00 88 1013.8
20260509081916 62 125 2.0 3.0 0.00 0.00 0.00 88 1013.9
20260509081416 62 125 4.0 6.0 0.00 0.00 0.00 87 1013.9
20260509080936 62 80 2.0 2.0 0.00 0.00 0.00 88 1013.9
20260509080416 62 0.0 2.0 0.00 0.00 0.00 88 1014.0
20260509075916 62 80 1.0 1.0 0.00 0.00 0.00 88 1014.0
20260509075416 62 0.0 0.0 0.00 0.00 0.00 88 1014.0
20260509074916 62 0.0 2.0 0.00 0.00 0.00 88 1014.2
20260509074416 62 148 1.0 3.0 0.00 0.00 0.00 88 1014.2
20260509073915 61 0.0 0.0 0.00 0.00 0.00 88 1014.2
20260509073416 61 0.0 0.0 0.00 0.00 0.00 88 1014.2
20260509072916 61 170 2.0 3.0 0.00 0.00 0.00 88 1014.2
20260509072416 61 0.0 0.0 0.00 0.00 0.00 88 1014.2
20260509071936 61 0.0 1.0 0.00 0.00 0.00 88 1014.2
20260509071415 61 0.0 1.0 0.00 0.00 0.00 88 1014.2
20260509070916 61 125 1.0 3.0 0.00 0.00 0.00 88 1014.2
20260509070416 61 103 1.0 2.0 0.00 0.00 0.00 89 1014.3
20260509065956 61 0.0 0.0 0.00 0.00 0.00 89 1014.3
20260509065416 61 0.0 1.0 0.00 0.00 0.00 89 1014.3
20260509064916 61 0.0 0.0 0.00 0.00 0.00 89 1014.3
20260509064416 61 0.0 0.0 0.00 0.00 0.00 89 1014.4
20260509063936 61 0.0 0.0 0.00 0.00 0.00 89 1014.4
20260509063416 61 283 1.0 1.0 0.00 0.00 0.00 89 1014.5
20260509062916 61 0.0 0.0 0.00 0.00 0.00 89 1014.5
20260509062416 60 0.0 0.0 0.00 0.00 0.00 89 1014.6
20260509061916 60 238 1.0 2.0 0.00 0.00 0.00 89 1014.5
20260509061416 60 260 1.0 1.0 0.00 0.00 0.00 89 1014.5
20260509060916 60 260 1.0 1.0 0.00 0.00 0.00 89 1014.5
20260509060416 60 350 1.0 1.0 0.00 0.00 0.00 89 1014.6
20260509055916 60 260 2.0 3.0 0.00 0.00 0.00 89 1014.6
20260509055416 60 283 1.0 2.0 0.00 0.00 0.00 90 1014.6
20260509054916 60 0.0 1.0 0.00 0.00 0.00 90 1014.6
20260509054416 60 283 2.0 2.0 0.00 0.00 0.00 90 1014.5
20260509053916 60 283 1.0 2.0 0.00 0.00 0.00 90 1014.5
20260509053416 60 283 1.0 1.0 0.00 0.00 0.00 90 1014.5
20260509052916 60 0.0 1.0 0.00 0.00 0.00 90 1014.5
20260509052416 60 283 1.0 2.0 0.00 0.00 0.00 90 1014.5
20260509051916 60 283 1.0 2.0 0.00 0.00 0.00 90 1014.5
20260509051416 60 0.0 1.0 0.00 0.00 0.00 89 1014.5
20260509050916 60 305 1.0 1.0 0.00 0.00 0.00 89 1014.5
20260509050416 60 0.0 1.0 0.00 0.00 0.00 89 1014.4
20260509045936 60 260 2.0 3.0 0.00 0.00 0.00 89 1014.4
20260509045436 60 260 1.0 2.0 0.00 0.00 0.00 89 1014.3
20260509044936 60 260 2.0 3.0 0.00 0.00 0.00 89 1014.4
20260509044436 60 260 2.0 3.0 0.00 0.00 0.00 89 1014.4
20260509043916 60 260 3.0 4.0 0.00 0.00 0.00 89 1014.4
20260509043416 61 260 3.0 4.0 0.00 0.00 0.00 89 1014.4
20260509042916 61 305 3.0 4.0 0.00 0.00 0.00 89 1014.3
20260509042416 61 305 2.0 4.0 0.00 0.00 0.00 89 1014.3
20260509041916 61 305 5.0 7.0 0.00 0.00 0.00 89 1014.2
20260509041416 61 305 3.0 3.0 0.00 0.00 0.00 89 1014.2
20260509040916 61 305 4.0 6.0 0.00 0.00 0.00 89 1014.1
20260509040416 61 283 4.0 5.0 0.00 0.00 0.00 89 1014.1
20260509035916 61 283 2.0 4.0 0.00 0.00 0.00 89 1014.0
20260509035416 61 305 3.0 3.0 0.00 0.00 0.00 89 1013.9
20260509034916 61 305 2.0 4.0 0.00 0.00 0.00 89 1013.9
20260509034416 61 283 3.0 4.0 0.00 0.00 0.00 89 1013.8
20260509033916 61 305 2.0 4.0 0.00 0.00 0.00 89 1013.8
20260509033416 61 283 4.0 6.0 0.00 0.00 0.00 88 1013.8
20260509032916 61 283 2.0 5.0 0.00 0.00 0.00 88 1013.7
20260509032416 61 260 2.0 5.0 0.00 0.00 0.00 88 1013.7
20260509031916 61 260 1.0 4.0 0.00 0.00 0.00 88 1013.7
20260509031416 61 283 3.0 6.0 0.00 0.00 0.00 88 1013.7
20260509030916 61 283 4.0 6.0 0.00 0.00 0.00 88 1013.6
20260509030416 61 305 5.0 6.0 0.00 0.00 0.00 87 1013.5
20260509025916 61 283 3.0 4.0 0.00 0.00 0.00 87 1013.5
20260509025416 62 305 4.0 7.0 0.00 0.00 0.00 87 1013.4
20260509024916 62 283 4.0 5.0 0.00 0.00 0.00 87 1013.4
20260509024416 62 260 6.0 9.0 0.00 0.00 0.00 86 1013.3
20260509023916 62 283 4.0 7.0 0.00 0.00 0.00 86 1013.3
20260509023416 62 260 3.0 5.0 0.00 0.00 0.00 85 1013.3
20260509022936 63 283 4.0 9.0 0.00 0.00 0.00 85 1013.2
20260509022436 63 305 7.0 10.0 0.00 0.00 0.00 85 1013.1
20260509021916 63 283 6.0 9.0 0.00 0.00 0.00 84 1013.2
20260509021416 64 283 5.0 8.0 0.00 0.00 0.00 83 1013.2
20260509020915 64 283 7.0 9.0 0.00 0.00 0.00 82 1013.1
20260509020416 64 260 5.0 6.0 0.00 0.00 0.00 82 1013.1
20260509015915 65 283 6.0 10.0 0.00 0.00 0.00 81 1013.1
20260509015436 65 283 5.0 8.0 0.00 0.00 0.00 81 1013.0
20260509014916 65 305 3.0 5.0 0.00 0.00 0.00 80 1013.0
20260509014416 66 305 4.0 6.0 0.00 0.00 0.00 80 1012.9
20260509013915 66 305 3.0 4.0 0.00 0.00 0.00 80 1013.0
20260509013416 66 283 6.0 10.0 0.00 0.00 0.00 79 1013.0
20260509012916 67 305 7.0 10.0 0.00 0.00 0.00 78 1013.0
20260509012436 67 283 6.0 11.0 0.00 0.00 0.00 78 1013.0
20260509011915 67 283 8.0 11.0 0.00 0.00 0.00 77 1013.1
20260509011416 67 283 6.0 11.0 0.00 0.00 0.00 77 1013.0
20260509010916 68 283 6.0 10.0 0.00 0.00 0.00 77 1013.0
20260509010416 68 305 5.0 7.0 0.00 0.00 0.00 76 1012.9
20260509005936 68 283 6.0 9.0 0.00 0.00 0.00 75 1012.9
20260509005415 69 305 5.0 8.0 0.00 0.00 0.00 74 1013.0
20260509004915 69 260 5.0 8.0 0.00 0.00 0.00 74 1013.0
20260509004415 69 260 7.0 11.0 0.00 0.00 0.00 73 1013.0
20260509003915 70 283 6.0 10.0 0.00 0.00 0.00 72 1013.0
20260509003415 70 283 6.0 8.0 0.00 0.00 0.00 71 1013.0
20260509002915 70 283 5.0 8.0 0.00 0.00 0.00 71 1012.9
20260509002436 70 283 8.0 11.0 0.00 0.00 0.00 71 1012.9
20260509001916 70 283 4.0 6.0 0.00 0.00 0.00 71 1012.9
20260509001415 71 260 8.0 11.0 0.00 0.00 0.00 70 1013.0
20260509000915 71 260 6.0 8.0 0.00 0.00 0.00 70 1013.0
20260509000418 71 305 5.0 9.0 0.00 0.00 0.00 70 1013.0
20260508235915 71 305 4.0 6.0 0.00 0.00 0.00 69 1013.0
20260508235415 72 283 5.0 8.0 0.00 0.00 0.00 69 1013.0
20260508234916 72 260 5.0 7.0 0.00 0.00 0.00 67 1013.0
20260508234415 72 305 4.0 7.0 0.00 0.00 0.00 68 1013.0
20260508233916 72 305 4.0 8.0 0.00 0.00 0.00 67 1013.0
20260508233416 73 283 5.0 9.0 0.00 0.00 0.00 67 1013.0
20260508232916 73 305 4.0 8.0 0.00 0.00 0.00 67 1013.0
20260508232415 73 260 5.0 8.0 0.00 0.00 0.00 66 1013.0
20260508231915 73 283 6.0 7.0 0.00 0.00 0.00 66 1013.1
20260508231416 73 260 7.0 9.0 0.00 0.00 0.00 66 1013.2
20260508230935 73 283 5.0 8.0 0.00 0.00 0.00 66 1013.2
20260508230415 73 283 6.0 9.0 0.00 0.00 0.00 65 1013.3
20260508225916 74 260 4.0 6.0 0.00 0.00 0.00 65 1013.3
20260508225416 74 260 3.0 5.0 0.00 0.00 0.00 65 1013.3
20260508224935 74 148 4.0 7.0 0.00 0.00 0.00 65 1013.3
20260508224416 74 260 6.0 9.0 0.00 0.00 0.00 64 1013.5
20260508223915 74 170 3.0 6.0 0.00 0.00 0.00 64 1013.5
20260508223435 74 80 2.0 4.0 0.00 0.00 0.00 66 1013.6
20260508222915 73 170 5.0 8.0 0.00 0.00 0.00 65 1013.7
20260508222435 73 170 2.0 6.0 0.00 0.00 0.00 65 1013.8
20260508221915 73 170 3.0 5.0 0.00 0.00 0.00 65 1013.8
20260508221415 73 170 2.0 5.0 0.00 0.00 0.00 67 1013.9
20260508220920 73 170 4.0 6.0 0.00 0.00 0.00 66 1014.0
20260508220436 73 193 5.0 8.0 0.00 0.00 0.00 66 1014.1
20260508215915 72 148 4.0 8.0 0.00 0.00 0.00 67 1014.2
20260508215415 72 170 5.0 6.0 0.00 0.00 0.00 66 1014.3
20260508214915 72 148 5.0 9.0 0.00 0.00 0.00 67 1014.3
20260508214415 72 215 4.0 8.0 0.00 0.00 0.00 67 1014.3
20260508213915 73 260 3.0 8.0 0.00 0.00 0.00 67 1014.3
20260508213415 73 148 5.0 6.0 0.00 0.00 0.00 66 1014.4
20260508212915 73 260 3.0 5.0 0.00 0.00 0.00 66 1014.4
20260508212435 73 170 3.0 5.0 0.00 0.00 0.00 66 1014.4
20260508211915 73 238 4.0 7.0 0.00 0.00 0.00 66 1014.4
20260508211415 73 170 4.0 6.0 0.00 0.00 0.00 67 1014.5
20260508210915 73 215 3.0 5.0 0.00 0.00 0.00 67 1014.6
20260508210415 72 238 3.0 5.0 0.00 0.00 0.00 68 1014.6
20260508205915 73 283 5.0 7.0 0.00 0.00 0.00 66 1014.7
20260508205415 73 238 4.0 7.0 0.00 0.00 0.00 68 1014.7